Regional Weather Roundup
Issued by NWS

Home | Current Version | Previous Version | Graphics & Text | Print | Product List | Glossary On
Versions: 1 2 3 4 5 6 7 8 9 10 11 12 13 14 15 16 17 18 19 20 21 22 23 24 25 26 27 28 29 30 31 32 33 34 35 36 37 38 39 40 41 42 43 44 45 46 47 48 49 50
000
ASUS45 KBOU 290807
RWRCO

WEATHER ROUNDUP FOR COLORADO
NATIONAL WEATHER SERVICE DENVER/BOULDER CO
200 AM MDT MON JUN 29 2015

NOTE: "FAIR" INDICATES FEW OR NO CLOUDS BELOW 12000 FEET WITH NO
SIGNIFICANT WEATHER AND/OR OBSTRUCTIONS TO VISIBILITY.

COZ001>005-013-030-031-290900-
...NORTHWEST COLORADO...

CITY           SKY/WX    TMP DP  RH WIND       PRES   REMARKS
CRAIG          MOCLDY    72  44  36 NE9       30.25S
HAYDEN         MOCLDY    66  43  42 E6        30.28S
MEEKER         MOCLDY    60  46  59 NE3       30.25S
MOUNT WERNER   NOT AVBL
STEAMBOAT SPGS MOCLDY    62  45  52 CALM      30.31S
WALDEN         PTCLDY    54  45  71 SE3       30.41S
$$

COZ006>008-011-290900-
...WEST CENTRAL VALLEYS...

CITY           SKY/WX    TMP DP  RH WIND       PRES   REMARKS
GRAND JUNCTION PTCLDY    79  44  28 SE16      30.10R
MONTROSE       PTCLDY    74  45  35 SE15      30.22R
EAGLE          NOT AVBL
RIFLE          MOCLDY    75  45  34 NE9       30.18S
DELTA          PTCLDY    80  42  25 NE8       30.18S
NUCLA          PTCLDY    72  43  35 E3        30.27R
$$

COZ017>023-064>068-290900-
...SOUTHWEST COLORADO...

CITY           SKY/WX    TMP DP  RH WIND       PRES   REMARKS
DURANGO        PTCLDY    62  46  55 N3        30.33S
CORTEZ         CLEAR     72  42  34 VRB7      30.24F
PAGOSA SPRINGS PTCLDY    62  44  52 NW3       30.43R
TELLURIDE      MOCLDY    63  42  47 CALM      30.51F
WOLF CREEK PAS NOT AVBL
$$

COZ009-010-012-014-032>034-037-058>063-290900-
...CENTRAL COLORADO...

CITY           SKY/WX    TMP DP  RH WIND       PRES   REMARKS
ASPEN          MOCLDY    65  44  46 SE12      30.38F
BUENA VISTA    MOCLDY    54  51  89 CALM      30.45F
COPPER MTN     PTCLDY    55  32  41 S7        30.71F
BERTHOUD PASS  CLOUDY    46  36  66 N5        30.76F
COTTONWOOD PAS NOT AVBL
GUNNISON       CLOUDY    59  46  63 N7        30.47F
KREMMLING      PTCLDY    54  45  71 CALM      30.40S
LEADVILLE      PTCLDY    44  43  96 E5        30.56F
MONARCH PASS   CLOUDY    46  36  66 W14       30.82F
SALIDA         MOCLDY    60  51  72 W3        30.49F
SUNLIGHT       MOCLDY    57  39  51 CALM      30.64S
WILKERSON PASS CLOUDY    46  39  76 W7        30.68F
$$

COZ069>075-290900-
...SAN LUIS VALLEY/SANGRE DE CRISTO MOUNTAINS...

CITY           SKY/WX    TMP DP  RH WIND       PRES   REMARKS
ALAMOSA        CLOUDY    58  49  72 NW7       30.44R
LA VETA PASS   CLOUDY    46  37  71 MISG      30.57F
SAGUACHE       CLOUDY    54  50  87 NW12      30.47R
$$

COZ035-036-038>040-290900-
...NORTHERN COLORADO FRONT RANGE...

CITY           SKY/WX    TMP DP  RH WIND       PRES   REMARKS
DENVER INTL AP CLOUDY    67  52  58 SW9       30.20F
DMNS CITY PARK   N/A     66  54  65 SE7       30.19F
AURORA         MOCLDY    67  50  54 S9        30.22F
FRONT RANGE AP CLOUDY    68  54  60 SW13      30.22S
ERIE MUNI ARPT CLOUDY    64  53  68 CALM      30.17F
BOULDER MUN AP CLOUDY    72  45  37 S3        30.18F
CENTENNIAL     CLOUDY    66  51  58 S8        30.23F
BROOMFIELD     CLOUDY    68  48  49 W3        30.21F
FORT COLLINS   CLOUDY    68  57  68 N3        30.18F
LONGMONT       CLOUDY    67  54  63 CALM      30.19F
$$

COZ041-046-047-076>085-087-088-290900-
...PIKES PEAK/PALMER DIVIDE AND SOUTHERN FOOTHILLS...

CITY           SKY/WX    TMP DP  RH WIND       PRES   REMARKS
COLO. SPRINGS  MOCLDY    60  54  80 CALM      30.30F
A. F. ACADEMY  MOCLDY    59  52  75 SE2       30.31F
ELLICOTT       PTCLDY   N/A N/A N/A NW3       30.28F
FALCON         PTCLDY    58  51  76 W6        30.34F
FORT CARSON    PTCLDY    61  54  76 SW6       30.26F
LIMON          MOCLDY    61  53  75 W5        30.23F
MONUMENT HILL  MOCLDY    57  48  72 S9          N/A
TRINIDAD       CLOUDY    65  52  62 E8        30.27F
$$

COZ042>045-048>051-090-091-290900-
...NORTHEAST COLORADO...

CITY           SKY/WX    TMP DP  RH WIND       PRES   REMARKS
GREELEY ARPT   CLOUDY    66  59  77 NE5       30.16F
AKRON          MOCLDY    66  52  60 SW9       30.17F
BURLINGTON     CLEAR     64  54  69 W9        30.16F
WRAY           PTCLDY    65  54  65 MISG      30.12F
STERLING       MOCLDY    63  55  77 SW5       30.12F
HOLYOKE        PTCLDY    64  55  72 W5        30.13S
FORT MORGAN    MOCLDY    62   5  10 CALM      30.17F
$$

COZ086-089-092>099-290900-
...SOUTHEAST COLORADO...

CITY           SKY/WX    TMP DP  RH WIND       PRES   REMARKS
PUEBLO         PTCLDY    61  57  87 NW6       30.20F
LA JUNTA       CLOUDY    72  52  49 NW12      30.13F
LAMAR          MOCLDY    63  59  87 E8        30.11F
SPRINGFIELD      N/A     65  56  72 NW10      30.15F
$$



USA.gov is the U.S. government's official web portal to all federal, state and local government web resources and services.